Location: Gorze? G�rny
(49.8500°N, 19.5000°E)
Time: 12:38:04
(UTC+00:00)

Cosmos 1805 - Visible Passes

Search period start: 24 September 2021 00:00
Search period end: 04 October 2021 00:00
Orbit: 522 x 531 km, 82.5° (Epoch: 24 September)

Date Brightness Start Highest point End Pass type
(mag) Time Alt. Az. Time Alt. Az. Time Alt. Az.
24 Sep 3.1 18:21:23 10° S 18:25:17 88° E 18:29:12 10° N visible
24 Sep 6.6 20:01:14 10° WNW 20:01:52 10° WNW 20:02:30 10° NW visible
25 Sep 3.1 18:09:47 10° S 18:13:39 81° E 18:17:33 10° NNE visible
25 Sep 6.6 19:48:57 10° W 19:50:11 11° WNW 19:51:26 10° NW visible
26 Sep 6.1 04:02:13 10° NNE 04:05:21 23° ENE 04:08:29 10° ESE visible
26 Sep 3.1 17:58:10 10° S 18:02:02 73° E 18:05:55 10° NNE visible
26 Sep 6.5 19:36:54 10° W 19:38:30 12° WNW 19:40:08 10° NW visible
27 Sep 6.2 03:50:40 10° NNE 03:53:42 21° ENE 03:56:41 10° ESE visible
27 Sep 3.1 17:46:34 10° S 17:50:25 66° E 17:54:17 10° NNE visible
27 Sep 6.5 19:24:56 10° W 19:26:49 13° WNW 19:28:45 10° NW visible
28 Sep 6.3 03:39:09 10° NNE 03:42:02 19° ENE 03:44:54 10° ESE visible
28 Sep 3.2 17:34:58 10° S 17:38:48 60° E 17:42:38 10° NNE visible
28 Sep 6.4 19:13:00 10° W 19:15:09 14° WNW 19:17:19 10° NNW visible
29 Sep 6.4 03:27:37 10° NNE 03:30:22 18° ENE 03:33:05 10° ESE visible
29 Sep 3.3 17:23:23 10° S 17:27:10 54° E 17:30:58 10° NNE visible
29 Sep 6.4 19:01:06 10° WSW 19:03:29 15° WNW 19:05:51 10° NNW visible
30 Sep 6.4 03:16:07 10° NNE 03:18:41 17° ENE 03:21:15 10° ESE visible
30 Sep 3.4 17:11:49 10° S 17:15:33 49° E 17:19:19 10° NNE visible
30 Sep 6.3 18:49:15 10° WSW 18:51:48 17° WNW 18:54:22 10° NNW visible
01 Oct 6.5 03:04:37 10° NNE 03:07:01 15° ENE 03:09:24 10° ESE visible
01 Oct 3.5 17:00:14 10° SSE 17:03:56 44° E 17:07:39 10° NNE visible
01 Oct 6.2 18:37:25 10° WSW 18:40:07 18° WNW 18:42:51 10° NNW visible
02 Oct 6.6 02:53:10 10° NNE 02:55:20 14° ENE 02:57:30 10° E visible
02 Oct 3.6 16:48:40 10° SSE 16:52:19 40° E 16:55:58 10° NNE visible
02 Oct 6.1 18:25:35 10° WSW 18:28:27 19° WNW 18:31:20 10° NNW visible
03 Oct 6.6 02:41:43 10° NE 02:43:39 13° ENE 02:45:35 10° E visible
03 Oct 6.0 18:13:47 10° WSW 18:16:46 21° WNW 18:19:47 10° NNW visible
